Location: Fort Wayne
(41.1310°N, 85.1290°W)
Time: 08:08:35
(UTC-04:00)

Oscar 19 - Visible Passes

Search period start: 01 September 2015 00:00
Search period end: 11 September 2015 00:00
Orbit: 775 x 790 km, 98.5° (Epoch: 30 August)

Date Brightness Start Highest point End Pass type
(mag) Time Alt. Az. Time Alt. Az. Time Alt. Az.
01 Sep 12.8 02:41:12 10° NNE 02:43:17 22° NE 02:43:17 22° NE visible
01 Sep 12.2 04:20:56 10° N 04:23:51 23° NW 04:23:51 23° NW visible
02 Sep 13.3 02:10:20 10° NE 02:11:05 13° NE 02:11:05 13° NE visible
02 Sep 12.0 03:48:41 10° N 03:51:38 32° NNW 03:51:38 32° NNW visible
03 Sep 12.3 03:16:49 10° NNE 03:19:26 31° NNE 03:19:26 31° NNE visible
03 Sep 12.8 04:58:21 10° NNW 04:59:59 13° NW 04:59:59 13° NW visible
04 Sep 12.8 02:45:19 10° NNE 02:47:14 22° NE 02:47:14 22° NE visible
04 Sep 12.4 04:25:13 10° NNW 04:27:47 21° NW 04:27:47 21° NW visible
05 Sep 13.4 02:14:20 10° NE 02:15:01 13° NE 02:15:01 13° NE visible
05 Sep 12.2 03:52:54 10° N 03:55:35 28° NNW 03:55:35 28° NNW visible
06 Sep 12.4 03:21:00 10° NNE 03:23:22 28° NNE 03:23:22 28° NNE visible
06 Sep 12.9 05:02:54 10° NW 05:03:56 11° NW 05:03:56 11° NW visible
07 Sep 12.9 02:49:26 10° NNE 02:51:10 20° NE 02:51:10 20° NE visible
07 Sep 12.5 04:29:31 10° NNW 04:31:43 19° NW 04:31:43 19° NW visible
08 Sep 13.4 02:18:21 10° NE 02:18:57 12° NE 02:18:57 12° NE visible
08 Sep 12.4 03:57:08 10° N 03:59:30 25° NNW 03:59:30 25° NNW visible
09 Sep 12.6 03:25:10 10° N 03:27:18 25° N 03:27:18 25° N visible
09 Sep 12.9 05:07:38 10° NW 05:07:51 10° NW 05:07:51 10° NW visible
10 Sep 13.0 02:53:33 10° NNE 02:55:05 19° NNE 02:55:05 19° NNE visible
10 Sep 12.7 04:33:49 10° NNW 04:35:38 17° NW 04:35:38 17° NW visible
